Location: Newark
(11.2914°S, 14.4718°E)
Time: 14:57:09
(UTC+00:00)

Tiros 1 despin weight - Pass Details

Date: 21 September 2019
Orbit: 593 x 643 km, 48.2° (Epoch: 20 October)

Event Time Altitude Azimuth Distance (km) Brightness Sun altitude
Rises 07:19:54 0° 225° (SW) 2,950 ? 35.1°
Reaches altitude 10° 07:22:15 10° 227° (SW) 2,036 ? 35.7°
Maximum altitude 07:26:55 66° 309° (NW) 695 ? 36.8°
Drops below altitude 10° 07:31:31 10° 31° (NNE) 2,007 ? 37.9°
Sets 07:33:49 0° 34° (NE) 2,903 ? 38.5°
